Location: El Álamo
(40.2307°N, 3.9945°W)
Time: 04:15:12
(UTC+00:00)

USA 186 - Pass Details

Date: 19 May 2025
Orbit: 338 x 359 km, 97.0° (Epoch: 19 May)

Event Time Altitude Azimuth Distance (km) Brightness Sun altitude
Exits shadow 20:32:41 - 187° (S) 1,651 4.5 -11.0°
Reaches altitude 10° 20:33:35 10° 192° (SSW) 1,278 3.9 -11.2°
Maximum altitude 20:36:07 35° 262° (W) 569 2.8 -11.6°
Drops below altitude 10° 20:38:40 10° 331° (NNW) 1,292 5.4 -11.9°
Sets 20:40:41 0° 340° (NNW) 2,139 6.5 -12.2°
